[[{"header":{"parameterUnit":"m.s-1","parameterCategory":1,"la1":30.2991,"la2":30.254,"lo1":-89.0895,"lo2":-89.0444,"dy":0.0017,"dx":0.0017,"nx":28,"ny":28,"refTime":"2024-05-31T21:00:00:Z","depth":0,"parameterNumber":2,"parameterNumberName":"U-component_of_WINDS"},"data":[0,0,0,0,0,0,0,0,0,0,0,0,0,0,0,0,0,0,0,0,0,0,0,0,0,0,0,0,0,0,0,0,0,0,0,0,0,0,0,0,0,0,0,0,0,0,0,0,0,0,0,0,0,0,0,0,0,0,0.4299,0.4302,0,0.4582,0.4585,0.4588,0.4695,0.4694,0.4693,0.4692,0.4982,0.499,0.4998,0,0,0,0,0,0,0,0,0,0,0,0,0,0.3852,0.3859,0.4299,0.4302,0.4306,0.4581,0.4585,0.4589,0.4695,0.4694,0.4693,0.4692,0.4979,0.4989,0.4999,0,0,0,0,0,0,0,0,0,0,0,0,0,0.4081,0.3862,0.4298,0.4392,0.4403,0.458,0.4585,0.459,0.4695,0.4694,0.4692,0.4691,0.4975,0.4988,0.5,0.5105,0,0,0.5039,0.5045,0,0,0,0,0,0,0,0,0.4068,0.4097,0.4375,0.4386,0.4399,0.4602,0.4534,0.4763,0.4695,0.4584,0.4692,0.4691,0.4856,0.4879,0.4935,0.5119,0.5131,0.5041,0.5048,0.5054,0.5057,0,0,0,0,0,0,0,0.4052,0.4086,0.4411,0.4378,0.4393,0.442,0.4451,0.4578,0.4724,0.4594,0.4602,0.4634,0.4862,0.4922,0.4942,0.5136,0.504,0.5052,0.5059,0.5064,0.5422,0.5424,0,0,0,0,0,0,0.402,0.4072,0.4402,0.4419,0.4227,0.4429,0.4464,0.4538,0.4723,0.475,0.4635,0.4638,0.4901,0.4927,0.4953,0.509,0.5054,0.5066,0.5073,0.542,0.5423,0.5425,0,0,0,0,0,0,0.401,0.4049,0.439,0.4248,0.4294,0.4438,0.452,0.4544,0.4604,0.4754,0.4781,0.4669,0.4901,0.4935,0.5067,0.5101,0.5071,0.5083,0.5418,0.5421,0.5424,0.5362,0,0,0,0,0,0,0.3997,0.4045,0.4086,0.4248,0.4301,0.4499,0.4522,0.455,0.4625,0.4632,0.4793,0.4818,0.4902,0.5047,0.508,0.5118,0.5093,0.5416,0.542,0.5423,0.5362,0.5363,0.5363,0,0,0,0,0,0.3981,0.4057,0.4087,0.4126,0.4355,0.4501,0.4531,0.4627,0.4628,0.4671,0.4767,0.4813,0.5091,0.506,0.5097,0.514,0.5414,0.5418,0.5423,0.5362,0.5363,0.5363,0,0,0,0,0,0,0.3894,0.408,0.4115,0.4246,0.4357,0.4519,0.4576,0.4624,0.4737,0.4739,0.4852,0.4887,0.5011,0.5089,0.505,0.5252,0.5256,0.5268,0.5197,0.5199,0.52,0.5179,0.5104,0,0,0,0,0,0.389,0.3993,0.415,0.425,0.4304,0.443,0.4497,0.4561,0.4681,0.4728,0.4835,0.4949,0.5063,0.5135,0.5248,0.5373,0.5411,0.5421,0.5422,0.5421,0.5431,0.5505,0.5512,0.5438,0.5438,0.5438,0,0,0.3883,0.3997,0.4055,0.4235,0.4329,0.4434,0.4469,0.4578,0.4657,0.4745,0.4877,0.4959,0.5094,0.5224,0.5286,0.5292,0.5459,0.5427,0.5425,0.5435,0.551,0.5516,0.5523,0.5441,0.5441,0.544,0,0,0.3924,0.402,0.4115,0.4208,0.435,0.4433,0.4456,0.4611,0.4669,0.4803,0.4872,0.4967,0.516,0.5254,0.5327,0.5405,0.5452,0.5438,0.5442,0.5513,0.5519,0.5524,0.5554,0.5562,0.5447,0.5447,0.5446,0,0.3898,0.4058,0.4158,0.4264,0.4342,0.4426,0.4524,0.461,0.478,0.4832,0.4836,0.5081,0.5178,0.5332,0.5351,0.5406,0.5437,0.5421,0.551,0.5516,0.5523,0.5552,0.5563,0.5444,0.5444,0.5445,0.5445,0,0.402,0.413,0.419,0.4353,0.4438,0.4539,0.4654,0.4728,0.4784,0.4867,0.5004,0.5123,0.5262,0.5303,0.5358,0.5465,0.5465,0.5487,0.5494,0.5526,0.5556,0.5567,0.5441,0.5441,0.5442,0.5443,0,0,0.4015,0.4233,0.4253,0.4329,0.4491,0.4579,0.4684,0.482,0.4882,0.4997,0.5089,0.525,0.5273,0.5356,0.5423,0.5484,0.554,0.5501,0.5506,0.5505,0.5667,0.565,0.5661,0.5572,0.5574,0.5576,0.5656,0,0.4079,0.4272,0.4365,0.4516,0.462,0.4702,0.4794,0.4904,0.4984,0.5085,0.5174,0.5287,0.5307,0.5358,0.5423,0.552,0.5575,0.5515,0.566,0.5663,0.5625,0.5677,0.5659,0.5728,0.5668,0.567,0.5672,0,0.418,0.4295,0.4457,0.4609,0.4656,0.4737,0.487,0.4965,0.5091,0.5145,0.5238,0.5303,0.5418,0.5415,0.5575,0.5532,0.5596,0.5653,0.5658,0.5676,0.567,0.5698,0.5753,0.5764,0.5691,0.5689,0.5688,0,0.4162,0.4358,0.4481,0.4543,0.4722,0.4778,0.4855,0.498,0.5056,0.5173,0.5224,0.5351,0.5421,0.5518,0.5616,0.5605,0.5767,0.5772,0.5817,0.5814,0.5849,0.5845,0.5916,0.5887,0.5886,0.5886,0.5886,0,0.4225,0.4322,0.4476,0.4551,0.4662,0.4768,0.4875,0.4958,0.5069,0.5163,0.5241,0.5327,0.5451,0.5553,0.563,0.5751,0.5782,0.583,0.5849,0.5824,0.5818,0.5869,0.5867,0.5889,0.5889,0.5888,0.5887,0,0.4225,0.4331,0.4471,0.463,0.4672,0.4747,0.4883,0.496,0.5044,0.5162,0.5196,0.5328,0.5452,0.5559,0.5723,0.5775,0.5901,0.5923,0.5858,0.5869,0.5908,0.5903,0.6016,0.6036,0.599,0.5991,0.5991,0,0.4259,0.4335,0.4502,0.4571,0.4647,0.4756,0.4835,0.4942,0.5021,0.5171,0.523,0.536,0.547,0.5664,0.5775,0.5901,0.5929,0.5959,0.5948,0.592,0.5931,0.5926,0.5935,0.596,0.596,0.596,0.596,0,0.4309,0.4358,0.4468,0.4598,0.4689,0.4796,0.4905,0.4957,0.5085,0.5169,0.5298,0.5383,0.555,0.5678,0.5816,0.5896,0.595,0.5962,0.5979,0.5955,0.5915,0.5939,0.5861,0.5959,0.5959,0.5959,0.5959,0.5959,0.4328,0.4401,0.453,0.4651,0.4744,0.4844,0.4925,0.502,0.5129,0.5274,0.533,0.5461,0.5587,0.5778,0.5858,0.5962,0.597,0.5995,0.6002,0.6006,0.6003,0.5896,0.5987,0.5987,0.5987,0.5988,0.5988,0,0.4384,0.4471,0.4581,0.4732,0.4827,0.4868,0.4992,0.5069,0.5183,0.5296,0.5403,0.555,0.5675,0.5796,0.5927,0.5987,0.6015,0.6018,0.6016,0.6034,0.5987,0.596,0.5994,0.5994,0.5994,0.5994,0.5994,0.5994,0.4424,0.4549,0.4614,0.4786,0.4873,0.5003,0.507,0.5163,0.5254,0.5415,0.552,0.5598,0.5714,0.5854,0.5971,0.6003,0.6049,0.6046,0.6084,0.6039,0.6037,0.6035,0.601,0.6054,0.6054,0.6123,0.6124,0.6124]},{"header":{"parameterUnit":"m.s-1","parameterCategory":1,"la1":30.2991,"la2":30.254,"lo1":-89.0895,"lo2":-89.0444,"dy":0.0017,"dx":0.0017,"nx":28,"ny":28,"refTime":"2024-05-31T21:00:00:Z","depth":0,"parameterNumber":3,"parameterNumberName":"V-component_of_WINDS"},"data":[0,0,0,0,0,0,0,0,0,0,0,0,0,0,0,0,0,0,0,0,0,0,0,0,0,0,0,0,0,0,0,0,0,0,0,0,0,0,0,0,0,0,0,0,0,0,0,0,0,0,0,0,0,0,0,0,0,0,5.7446,5.7448,0,5.7654,5.7656,5.7658,5.7698,5.7696,5.7694,5.7693,5.7894,5.79,5.7907,0,0,0,0,0,0,0,0,0,0,0,0,0,5.7071,5.7078,5.7445,5.7448,5.7451,5.7653,5.7656,5.7659,5.7698,5.7696,5.7694,5.7692,5.7891,5.79,5.7908,0,0,0,0,0,0,0,0,0,0,0,0,0,5.7252,5.708,5.7445,5.7495,5.7502,5.7653,5.7656,5.766,5.7698,5.7696,5.7693,5.7691,5.7889,5.7899,5.7909,5.8021,0,0,5.794,5.7945,0,0,0,0,0,0,0,0,5.7241,5.7265,5.7485,5.7492,5.7499,5.7647,5.7598,5.778,5.7699,5.7623,5.7693,5.769,5.7813,5.7829,5.7873,5.8031,5.8039,5.7941,5.7948,5.7952,5.7955,0,0,0,0,0,0,0,5.7229,5.7257,5.7527,5.7488,5.7497,5.7503,5.7526,5.7633,5.7729,5.763,5.7633,5.7658,5.7816,5.7863,5.7878,5.8042,5.7941,5.795,5.7957,5.7961,5.8303,5.8305,0,0,0,0,0,0,5.7209,5.7246,5.7521,5.7534,5.7362,5.7512,5.7538,5.7602,5.7728,5.7745,5.766,5.7659,5.7847,5.7866,5.7885,5.8027,5.7952,5.7962,5.7967,5.83,5.8303,5.8306,0,0,0,0,0,0,5.7201,5.7233,5.7512,5.7391,5.7427,5.7521,5.7593,5.7607,5.7655,5.7751,5.7767,5.7691,5.7846,5.7871,5.7988,5.8034,5.7966,5.7976,5.8296,5.8301,5.8305,5.8309,0,0,0,0,0,0,5.719,5.723,5.7277,5.7392,5.7434,5.7615,5.7596,5.7613,5.7674,5.7675,5.7784,5.78,5.7846,5.7973,5.7998,5.8047,5.7984,5.8293,5.8298,5.8303,5.8305,5.8313,5.832,0,0,0,0,0,5.7177,5.7266,5.7279,5.7312,5.7494,5.7618,5.7641,5.7696,5.7677,5.7723,5.7785,5.7796,5.8025,5.7984,5.8014,5.8066,5.829,5.8297,5.8303,5.8302,5.8312,5.832,0,0,0,0,0,0,5.715,5.7283,5.7297,5.7428,5.7512,5.7624,5.7684,5.7704,5.7791,5.7788,5.7848,5.7872,5.7986,5.8037,5.799,5.8182,5.8156,5.8168,5.8145,5.8155,5.8162,5.8148,5.7992,0,0,0,0,0,5.716,5.7253,5.7362,5.7467,5.7509,5.7589,5.7645,5.768,5.7767,5.7802,5.7872,5.7953,5.8044,5.8101,5.819,5.8312,5.8336,5.8362,5.837,5.8375,5.8386,5.8455,5.8468,5.8328,5.8328,5.8328,0,0,5.718,5.7264,5.7318,5.7464,5.7533,5.7625,5.7618,5.7716,5.7784,5.7815,5.7933,5.7986,5.808,5.8202,5.8258,5.8248,5.843,5.8383,5.8387,5.8395,5.8463,5.8476,5.8488,5.8332,5.8332,5.8331,0,0,5.7265,5.7338,5.7434,5.7504,5.7611,5.7664,5.7686,5.7797,5.7835,5.7954,5.798,5.8059,5.8213,5.8281,5.8335,5.8445,5.8459,5.8472,5.851,5.8577,5.8588,5.8598,5.8639,5.8652,5.8481,5.8482,5.8482,0,5.7276,5.742,5.748,5.7578,5.7641,5.7677,5.7774,5.7837,5.7964,5.8005,5.7992,5.8188,5.8254,5.8392,5.8419,5.8461,5.8488,5.846,5.8582,5.8593,5.8603,5.8642,5.8657,5.8483,5.8482,5.8482,5.8482,0,5.7429,5.7528,5.7592,5.772,5.7789,5.7885,5.7957,5.8019,5.8048,5.8101,5.8221,5.8301,5.8407,5.8442,5.8469,5.8584,5.8574,5.8571,5.8546,5.8617,5.8655,5.867,5.8484,5.8484,5.8483,5.8483,0,0,5.7503,5.7665,5.7687,5.7746,5.7866,5.7942,5.8038,5.8147,5.8199,5.8285,5.8367,5.8497,5.8496,5.8557,5.8591,5.8649,5.8734,5.8639,5.8642,5.8655,5.8866,5.8869,5.8886,5.8743,5.8746,5.8748,5.8858,0,5.7604,5.7784,5.7841,5.7989,5.8081,5.8116,5.82,5.8281,5.8333,5.8416,5.8471,5.8564,5.8554,5.8591,5.8651,5.8711,5.8777,5.8703,5.8818,5.8822,5.8796,5.8906,5.891,5.901,5.8873,5.8876,5.8878,0,5.7747,5.7841,5.7999,5.8109,5.815,5.8225,5.8329,5.8408,5.8499,5.8533,5.8602,5.8632,5.8731,5.87,5.8837,5.8786,5.8836,5.8872,5.8877,5.8891,5.8855,5.8924,5.9043,5.9058,5.8902,5.89,5.8898,0,5.7788,5.7953,5.807,5.8119,5.8249,5.8301,5.8357,5.8446,5.8508,5.8596,5.8637,5.8734,5.8787,5.886,5.8915,5.8887,5.9047,5.902,5.9077,5.9075,5.911,5.9108,5.924,5.9139,5.9139,5.9138,5.9138,0,5.7896,5.7992,5.8091,5.8163,5.8271,5.8333,5.8437,5.8493,5.8573,5.8654,5.8688,5.8763,5.883,5.8912,5.8954,5.9062,5.9085,5.9114,5.9124,5.9112,5.9109,5.9147,5.9142,5.9142,5.9142,5.9141,5.914,0,5.7961,5.8031,5.8162,5.8275,5.8306,5.838,5.8476,5.8545,5.8599,5.8701,5.8728,5.8811,5.891,5.8972,5.9096,5.9125,5.9244,5.925,5.9215,5.922,5.9274,5.9269,5.9437,5.9463,5.9342,5.9343,5.9344,0,5.8027,5.8102,5.8225,5.8285,5.8342,5.8436,5.8501,5.8563,5.8627,5.8737,5.8793,5.8896,5.8982,5.9138,5.9207,5.9302,5.9312,5.9365,5.9327,5.9313,5.9315,5.9311,5.9319,5.9371,5.9372,5.9373,5.9374,0,5.8136,5.8168,5.8261,5.8367,5.8444,5.8529,5.8613,5.8658,5.8734,5.8804,5.8909,5.8976,5.9105,5.9206,5.9308,5.9361,5.938,5.9385,5.9404,5.9394,5.9371,5.9386,5.9234,5.9382,5.9381,5.938,5.938,5.938,5.8206,5.8275,5.8373,5.8476,5.8547,5.8625,5.8697,5.8761,5.885,5.8964,5.8993,5.9103,5.9191,5.933,5.9386,5.947,5.9462,5.9488,5.9495,5.9502,5.9504,5.9356,5.9488,5.9488,5.9488,5.9488,5.9488,0,5.8319,5.8384,5.8478,5.8598,5.8678,5.8692,5.8786,5.8851,5.8949,5.9031,5.9116,5.9235,5.9333,5.941,5.951,5.9563,5.9574,5.9587,5.9585,5.9597,5.9504,5.9479,5.9577,5.9577,5.9577,5.9577,5.9576,5.9576,5.8388,5.8507,5.855,5.8703,5.8766,5.8878,5.893,5.9002,5.9069,5.9202,5.9286,5.9336,5.9416,5.9522,5.9612,5.9632,5.9667,5.9679,5.9701,5.9613,5.9603,5.9594,5.9571,5.9686,5.9686,5.9787,5.9788,5.9789]}]]